Starlink 3078

operational
NORAD ID: 49134 Int'l Des: 2021-082 Owner: SPXS Country: US Constellation: starlink
LEOCIRCULAR

关于 Starlink 3078

正在加载描述...

实时位置

正在加载3D地球...

即将过境

高度历史

Altitude vs Time

uPlot chart will show altitude changes over time

两行轨道根数

1 49134U 21082E 25350.80226596 -.00002277 00000-0 -18316-3 0 9999
2 49134 70.0004 143.4455 0001988 283.2046 76.8891 14.98312659234760
Epoch: Dec 16, 2025 • Age: 10 hours

当前状态

高度 575.3 km
速度 7.57 km/s
星下点 -7.41°S, 18.83°W
发射日期 Sep 14, 2021
运行时间 4.2 years
类型 internet

技术详情

分类 Payload
质量 297.00 kg
干质量 275.00 kg
总质量 297.00 kg
长度 0.20 m
直径 2.80 m
跨度 9.00 m
形状 Box + pan
制造商 SPXS
平台类型 Starlink
阶段状态 In Orbit
所有者/国家 SPXS/US

大型星座

Loading constellations...